Weather History for Khon Kaen, Thailand

Change the Weather History Date:

Wednesday, February 27, 2013

  Actual Average Record
Temperature  
Mean Temperature 87 °F -  
Max Temperature 99 °F 95 °F - ()
Min Temperature 75 °F 72 °F - ()
Cooling Degree Days 22    
Growing Degree Days 37 (Base 50)    
Moisture  
Dew Point 68 °F    
Average Humidity 49    
Maximum Humidity 83    
Minimum Humidity 25    
Precipitation  
Precipitation 0.00 in 0.04 in - ()
Sea Level Pressure  
Sea Level Pressure 29.79 in    
Wind  
Wind Speed 2 mph ()    
Max Wind Speed 12 mph    
Max Gust Speed -    
Visibility 5.7 miles    
Events      
T = Trace of Precipitation, MM = Missing Value Source: Averaged Metar Reports

Daily Weather History Graph

Daily Weather History Graph

Search for Another Location

Airport:

Trip Planner

Search our weather history database for the weather conditions in past years. The results will help you decide how hot, cold, wet, or windy it might be!

Date:

Astronomy

Feb. 27, 2013 Rise Set
Actual Time 6:28 AM ICT 6:15 PM ICT
Civil Twilight 6:06 AM ICT 6:37 PM ICT
Nautical Twilight 5:41 AM ICT 7:02 PM ICT
Astronomical Twilight 5:16 AM ICT 7:27 PM ICT
Moon 7:36 PM ICT (2/27) 7:05 AM ICT (2/27)
Length of Visible Light 12h 30m
Length of Day
11h 47m
Full, 98% of the Moon is Illuminated
Feb 27
Full
Mar 5
Last Quarter
Mar 12
New
Mar 20
First Quarter
Mar 27
Full

Hourly Weather History & Observations

Time (ICT) Temp. Heat Index Dew Point Humidity Pressure Visibility Wind Dir Wind Speed Gust Speed Precip Events Conditions
1:00 AM 82 °F - 66 °F 50% 29.81 in 6 mi West 3.5 mph - -   Clear
4:00 AM 78.8 °F - 68.0 °F 69% 29.80 in - NNE 2.3 mph - N/A   Clear
6:00 AM 77.0 °F - 68.0 °F 74% 29.80 in 6.2 mi Calm Calm - N/A   Scattered Clouds
7:00 AM 77 °F - 66 °F 60% 29.81 in 5 mi North 3.5 mph - -   Mist
7:00 AM 75.2 °F - 69.8 °F 83% 29.83 in 5.0 mi Calm Calm - N/A   Unknown
8:00 AM 82.4 °F 85.4 °F 68.0 °F 62% 29.86 in 5.0 mi Calm Calm - N/A   Unknown
9:00 AM 87.8 °F 93.8 °F 71.6 °F 58% 29.86 in 5.0 mi East 3.5 mph - N/A   Unknown
10:00 AM 89.6 °F 96.2 °F 71.6 °F 55% 29.92 in 5.0 mi ESE 5.8 mph - N/A   Unknown
11:00 AM 91.4 °F 96.8 °F 69.8 °F 49% 29.86 in - SE 4.6 mph - N/A   Clear
12:00 PM 93.2 °F 97.7 °F 68.0 °F 44% 29.86 in - Variable 3.5 mph - N/A   Clear
1:00 PM 97 °F - 64 °F 25% 29.77 in 6 mi East 11.5 mph - -   Clear
1:00 PM 96.8 °F 101.8 °F 68.0 °F 39% 29.80 in - Variable 3.5 mph - N/A   Clear
2:00 PM 96.8 °F 101.8 °F 68.0 °F 39% 29.77 in 6.2 mi East 3.5 mph - N/A   Partly Cloudy
3:00 PM 98.6 °F 102.8 °F 66.2 °F 35% 29.74 in 6.2 mi Variable 2.3 mph - N/A   Partly Cloudy
4:00 PM 98.6 °F 102.8 °F 66.2 °F 35% 29.71 in 6.2 mi Variable 1.2 mph - N/A   Partly Cloudy
5:00 PM 96.8 °F 100.7 °F 66.2 °F 37% 29.71 in 6.2 mi Variable 3.5 mph - N/A   Partly Cloudy
6:00 PM 95.0 °F 98.5 °F 66.2 °F 39% 29.71 in 6.2 mi Calm Calm - N/A   Partly Cloudy
7:00 PM 95 °F - 67 °F 31% 29.69 in 6 mi Calm Calm - -   Haze
7:00 PM 89.6 °F 93.4 °F 68.0 °F 49% 29.71 in 5.6 mi Calm Calm - N/A   Unknown
8:00 PM 89.6 °F 93.4 °F 68.0 °F 49% 29.74 in 5.6 mi ESE 1.2 mph - N/A   Unknown